This is the latest recevied weather packets stored in our database for station/object AA7VG. If no packets are shown the sender has not sent any weather packets the latest 10 day(s).
| Time | Temp. | Humidity | Pressure | Rain* | Wind** | Luminosity | Snow |
|---|---|---|---|---|---|---|---|
| 1777960050 | 6.11° C | 49% | 1014.7 hPa | 0 mm | - | - | - |
| 1777959748 | 6.11° C | 49% | 1014.6 hPa | 0 mm | - | - | - |
| 1777959446 | 5.56° C | 51% | 1014.5 hPa | 0 mm | - | - | - |
| 1777959142 | 5.56° C | 52% | 1014.6 hPa | 0 mm | - | - | - |
| 1777958839 | 5.56° C | 52% | 1014.6 hPa | 0 mm | - | - | - |
| 1777958536 | 6.11° C | 52% | 1014.6 hPa | 0 mm | - | - | - |
| 1777958233 | 6.11° C | 51% | 1014.6 hPa | 0 mm | - | - | - |
| 1777957931 | 6.11° C | 51% | 1014.7 hPa | 0 mm | - | - | - |
| 1777957629 | 6.67° C | 50% | 1014.7 hPa | 0 mm | - | - | - |
| 1777957328 | 7.22° C | 48% | 1014.6 hPa | 0 mm | - | - | - |
| 1777957028 | 7.22° C | 47% | 1014.4 hPa | 0 mm | - | - | - |
| 1777956726 | 7.22° C | 47% | 1014.6 hPa | 0 mm | - | - | - |
| 1777956422 | 7.22° C | 47% | 1014.5 hPa | 0 mm | - | - | - |
| 1777956119 | 6.67° C | 47% | 1014.3 hPa | 0 mm | - | - | - |
| 1777955816 | 6.67° C | 49% | 1014.4 hPa | 0 mm | - | - | - |
| 1777955512 | 6.67° C | 50% | 1014.6 hPa | 0 mm | - | - | - |
| 1777955208 | 6.67° C | 50% | 1014.6 hPa | 0 mm | - | - | - |
| 1777954906 | 7.22° C | 49% | 1014.2 hPa | 0 mm | - | - | - |
| 1777954602 | 7.22° C | 50% | 1014.2 hPa | 0 mm | - | - | - |
| 1777954300 | 7.22° C | 50% | 1014.2 hPa | 0 mm | - | - | - |
| 1777953997 | 7.22° C | 51% | 1014.2 hPa | 0 mm | - | - | - |
| 1777953694 | 7.22° C | 51% | 1014.3 hPa | 0 mm | - | - | - |
| 1777953390 | 7.78° C | 50% | 1014 hPa | 0 mm | - | - | - |
| 1777953086 | 7.78° C | 50% | 1014 hPa | 0 mm | - | - | - |
| 1777952783 | 7.78° C | 49% | 1014.4 hPa | 0 mm | - | - | - |
* Rain latest hour (hover to see other rain measurements)
** Current wind speed in m/s (hover to see current wind gust speed)